Weather in Shchekino

Russia / Vologda Oblast     60°39′01″N   46°12′39″E
temp.,
°C
wind,
m/s
gust,
m/s
humid.,
%
clouds,
%
prec.,
mm/h
press.,
hPa
HPBL,
m
14 june, mon
mon1400:00+14s27975 0.0 1009130
03:00+14s259782 0.0 1009107
06:00+16ssw269278 0.0 1010239
09:00+21sw3567100 0.1 1010763
12:00+25w564455 0.3 10092018
15:00+25w36468 0.4 10091780
18:00+23wsw365687 0.0 1010711
21:00+16wnw398698 0.4 1011294
15 june, tue
tue1500:00+13nnw2697100 0.0 1013138
03:00+11nnw11977 0.0 101410
06:00+16n11815 0.0 1014273
09:00+21sse11495 0.0 10141060
12:00+24ssw23365 0.0 10121841
15:00+26ssw35345 0.0 10102331
18:00+25sw35435 0.0 10081053
21:00+20s3865100 0.0 1008246
16 june, wed
wed1600:00+17ssw298195 0.0 1008235
03:00+17ssw2584100 0.1 1007122
06:00+18sw267491 0.0 1007277
09:00+17wsw268795 0.3 1007302
12:00+21nw564538 0.0 10071139
15:00+12nw2691100 0.7 1009338
18:00+15nw5107594 0.5 1009740
21:00+13nnw410610 0.6 1011557
17 june, thu
thu1700:00+9wnw310800 0.0 1012237
03:00+7nw24930 0.0 101484
06:00+12nw126518 0.0 1016347
09:00+17wnw245311 0.1 10161353
12:00+17nnw3664100 1.7 10171248
15:00+19nw473998 2.1 10172558
18:00+16nnw384994 0.0 1019637
21:00+12w356526 0.0 102185
18 june, fri
fri1800:00+9nw38735 0.0 1022152
03:00+8nw22735 0.0 102434
06:00+13w24565 0.0 1025246
09:00+19w453741 0.0 10241309
12:00+22w4732100 0.0 10221887
15:00+23w5833100 0.0 10201976
18:00+22wsw4948100 0.0 1019742
21:00+17sw377165 0.0 1018129